Weather History for Holdrege, NE

Change the Weather History Date:

Monday, March 11, 2013

  Actual Average Record
Temperature  
Mean Temperature 36 °F -  
Max Temperature 56 °F 54 °F 85 °F (1972)
Min Temperature 18 °F 27 °F -9 °F (1998)
Degree Days  
Heating Degree Days 28    
Moisture  
Dew Point 21 °F    
Average Humidity 63    
Maximum Humidity 83    
Minimum Humidity 31    
Precipitation  
Precipitation 0.00 in - - ()
Sea Level Pressure  
Sea Level Pressure 29.93 in    
Wind  
Wind Speed 9 mph (NW)    
Max Wind Speed 20 mph    
Max Gust Speed 28 mph    
Visibility 10 miles    
Events      
Averages and records for this station are not official NWS values.
T = Trace of Precipitation, MM = Missing Value Source: NWS Daily Summary

Daily Weather History Graph

Daily Weather History Graph

Search for Another Location

Airport:

Trip Planner

Search our weather history database for the weather conditions in past years. The results will help you decide how hot, cold, wet, or windy it might be!

Date:

Astronomy

Mar. 11, 2013 Rise Set
Actual Time 7:54 AM CDT 7:40 PM CDT
Civil Twilight 7:27 AM CDT 8:07 PM CDT
Nautical Twilight 6:56 AM CDT 8:38 PM CDT
Astronomical Twilight 6:24 AM CDT 9:10 PM CDT
Moon 7:29 AM CDT (3/11) 7:54 PM CDT (3/11)
Length of Visible Light 12h 39m
Length of Day
11h 45m
Waning Crescent, 0% of the Moon is Illuminated
Mar 11
Waning Crescent
Mar 11
New
Mar 19
First Quarter
Mar 27
Full
Apr 2
Last Quarter

Hourly Weather History & Observations

Time (CDT) Temp. Windchill Dew Point Humidity Pressure Visibility Wind Dir Wind Speed Gust Speed Precip Events Conditions
12:15 AM 21.7 °F 12.3 °F 16.2 °F 79% 29.99 in 10.0 mi NNW 8.1 mph - N/A   Clear
12:35 AM 21.6 °F 11.3 °F 15.8 °F 78% 29.99 in 10.0 mi NNW 9.2 mph - N/A   Clear
12:55 AM 21.0 °F 9.3 °F 15.8 °F 80% 29.99 in 10.0 mi NW 11.5 mph - N/A   Clear
1:15 AM 20.8 °F 9.0 °F 16.3 °F 83% 30.00 in 10.0 mi WNW 11.5 mph - N/A   Clear
1:35 AM 19.9 °F 7.9 °F 15.6 °F 83% 29.99 in 10.0 mi NW 11.5 mph - N/A   Clear
1:55 AM 20.7 °F 8.8 °F 15.8 °F 81% 29.98 in 10.0 mi NNW 11.5 mph - N/A   Clear
2:15 AM 20.8 °F 9.0 °F 15.4 °F 80% 29.98 in 10.0 mi North 11.5 mph - N/A   Clear
2:35 AM 20.3 °F 9.0 °F 14.7 °F 79% 29.98 in 10.0 mi North 10.4 mph - N/A   Clear
2:55 AM 19.9 °F 10.1 °F 14.4 °F 79% 29.97 in 10.0 mi NNW 8.1 mph - N/A   Clear
3:15 AM 19.4 °F 11.5 °F 14.2 °F 80% 29.97 in 10.0 mi NNW 5.8 mph - N/A   Clear
3:35 AM 19.4 °F 10.4 °F 14.0 °F 80% 29.96 in 10.0 mi NNW 6.9 mph - N/A   Clear
3:55 AM 19.4 °F 10.4 °F 13.6 °F 78% 29.96 in 10.0 mi NNW 6.9 mph - N/A   Clear
4:15 AM 18.5 °F 9.3 °F 13.1 °F 79% 29.95 in 10.0 mi NW 6.9 mph - N/A   Clear
4:35 AM 19.2 °F 11.3 °F 13.6 °F 79% 29.94 in 10.0 mi NNW 5.8 mph - N/A   Clear
4:55 AM 18.9 °F 9.8 °F 13.1 °F 78% 29.94 in 10.0 mi WNW 6.9 mph - N/A   Clear
5:15 AM 18.3 °F 10.2 °F 13.1 °F 80% 29.94 in 10.0 mi WNW 5.8 mph - N/A   Clear
5:35 AM 18.3 °F 9.1 °F 13.1 °F 80% 29.93 in 10.0 mi WNW 6.9 mph - N/A   Clear
5:55 AM 18.3 °F 7.3 °F 13.5 °F 81% 29.95 in 10.0 mi WNW 9.2 mph - N/A   Clear
6:15 AM 18.0 °F 7.7 °F 13.1 °F 81% 29.94 in 10.0 mi WNW 8.1 mph - N/A   Clear
6:35 AM 18.1 °F 8.9 °F 13.5 °F 82% 29.94 in 10.0 mi WNW 6.9 mph - N/A   Clear
6:55 AM 18.7 °F 8.6 °F 14.0 °F 82% 29.94 in 10.0 mi WNW 8.1 mph - N/A   Clear
7:15 AM 19.0 °F 9.0 °F 14.4 °F 82% 29.94 in 10.0 mi NW 8.1 mph - N/A   Clear
7:35 AM 19.6 °F 9.7 °F 14.9 °F 82% 29.94 in 10.0 mi NW 8.1 mph - N/A   Clear
7:55 AM 19.9 °F 10.1 °F 14.9 °F 81% 29.94 in 10.0 mi WNW 8.1 mph - N/A   Clear
8:15 AM 19.9 °F 11.1 °F 15.1 °F 81% 29.94 in 10.0 mi WNW 6.9 mph - N/A   Clear
8:35 AM 20.3 °F 12.5 °F 15.4 °F 81% 29.93 in 10.0 mi WNW 5.8 mph - N/A   Clear
8:55 AM 22.3 °F 16.1 °F 17.1 °F 80% 29.93 in 10.0 mi WNW 4.6 mph - N/A   Clear
9:15 AM 25.9 °F 18.2 °F 19.0 °F 75% 29.93 in 10.0 mi WNW 6.9 mph - N/A   Clear
9:35 AM 26.2 °F 20.7 °F 18.9 °F 74% 29.93 in 10.0 mi West 4.6 mph - N/A   Clear
9:55 AM 27.5 °F 21.1 °F 19.8 °F 73% 29.93 in 10.0 mi WNW 5.8 mph - N/A   Clear
10:15 AM 28.8 °F 20.9 °F 19.2 °F 68% 29.93 in 10.0 mi WNW 8.1 mph - N/A   Clear
10:35 AM 30.2 °F 23.4 °F 19.6 °F 65% 29.93 in 10.0 mi WNW 6.9 mph - N/A   Clear
10:55 AM 32.0 °F 25.6 °F 20.7 °F 63% 29.93 in 10.0 mi WSW 6.9 mph - N/A   Clear
11:15 AM 33.1 °F 27.7 °F 21.4 °F 62% 29.93 in 10.0 mi West 5.8 mph - N/A   Clear
11:35 AM 34.7 °F 27.5 °F 20.8 °F 57% 29.93 in 10.0 mi West 9.2 mph - N/A   Clear
11:55 AM 36.1 °F 32.3 °F 20.8 °F 54% 29.93 in 10.0 mi WNW 4.6 mph - N/A   Clear
12:15 PM 38.7 °F 32.4 °F 20.8 °F 49% 29.93 in 10.0 mi West 9.2 mph - N/A   Clear
12:35 PM 41.4 °F 35.7 °F 21.0 °F 44% 29.92 in 10.0 mi West 9.2 mph - N/A   Clear
12:55 PM 42.6 °F 37.8 °F 20.8 °F 42% 29.91 in 10.0 mi West 8.1 mph - N/A   Clear
1:15 PM 44.6 °F 38.8 °F 21.0 °F 39% 29.91 in 10.0 mi West 11.5 mph - N/A   Clear
1:35 PM 47.3 °F - 23.2 °F 39% 29.90 in 10.0 mi West 12.7 mph - N/A   Clear
1:55 PM 47.8 °F - 22.1 °F 36% 29.88 in 10.0 mi West 12.7 mph 17.3 mph N/A   Clear
2:15 PM 49.5 °F - 22.3 °F 34% 29.87 in 10.0 mi West 15.0 mph - N/A   Clear
2:35 PM 51.4 °F - 22.5 °F 32% 29.86 in 10.0 mi West 13.8 mph 20.7 mph N/A   Clear
2:55 PM 53.6 °F - 23.4 °F 31% 29.85 in 10.0 mi WNW 9.2 mph - N/A   Clear
3:15 PM 54.0 °F - 24.1 °F 31% 29.85 in 10.0 mi NW 15.0 mph 20.7 mph N/A   Clear
3:55 PM 53.6 °F - 27.3 °F 36% 29.84 in 10.0 mi WNW 10.4 mph - N/A   Clear
4:15 PM 55.9 °F - 28.6 °F 35% 29.84 in 10.0 mi NW 12.7 mph 23.0 mph N/A   Clear
4:35 PM 53.8 °F - 28.0 °F 37% 29.85 in 10.0 mi NW 19.6 mph 24.2 mph N/A   Scattered Clouds
4:55 PM 53.8 °F - 28.2 °F 37% 29.85 in 10.0 mi NW 17.3 mph 27.6 mph N/A   Scattered Clouds
5:15 PM 54.0 °F - 29.1 °F 39% 29.86 in 10.0 mi NW 18.4 mph 26.5 mph N/A   Mostly Cloudy
5:35 PM 53.6 °F - 27.1 °F 36% 29.86 in 10.0 mi NW 15.0 mph 25.3 mph N/A   Scattered Clouds
5:55 PM 51.3 °F - 28.4 °F 41% 29.87 in 10.0 mi NW 16.1 mph 25.3 mph N/A   Clear
6:15 PM 50.5 °F - 29.7 °F 45% 29.87 in 10.0 mi NNW 11.5 mph - N/A   Clear
6:35 PM 50.4 °F - 30.0 °F 46% 29.88 in 10.0 mi NNW 8.1 mph - N/A   Clear
6:55 PM 49.1 °F - 30.0 °F 48% 29.90 in 10.0 mi NW 8.1 mph - N/A   Clear
7:15 PM 46.4 °F 42.9 °F 31.1 °F 55% 29.90 in 10.0 mi NW 6.9 mph - N/A   Scattered Clouds
7:35 PM 45.0 °F 41.8 °F 30.2 °F 56% 29.90 in 10.0 mi NW 5.8 mph - N/A   Scattered Clouds
7:55 PM 43.0 °F 38.8 °F 29.7 °F 59% 29.91 in 10.0 mi NW 6.9 mph - N/A   Clear
8:15 PM 41.9 °F 37.5 °F 29.3 °F 61% 29.92 in 10.0 mi NW 6.9 mph - N/A   Clear
8:35 PM 41.0 °F 35.8 °F 29.1 °F 63% 29.93 in 10.0 mi NNW 8.1 mph - N/A   Scattered Clouds
8:55 PM 40.8 °F 36.2 °F 29.3 °F 64% 29.94 in 10.0 mi NW 6.9 mph - N/A   Mostly Cloudy
9:35 PM 41.5 °F 36.4 °F 29.3 °F 62% 29.97 in 10.0 mi NW 8.1 mph - N/A   Mostly Cloudy
9:55 PM 41.2 °F 36.6 °F 29.3 °F 63% 29.98 in 10.0 mi NNW 6.9 mph - N/A   Overcast
10:15 PM 39.9 °F 34.5 °F 29.3 °F 66% 30.00 in 10.0 mi NNW 8.1 mph - N/A   Mostly Cloudy
10:35 PM 38.8 °F 34.6 °F 28.9 °F 68% 30.00 in 10.0 mi NW 5.8 mph - N/A   Scattered Clouds
10:55 PM 37.0 °F 32.4 °F 29.1 °F 73% 30.02 in 10.0 mi WNW 5.8 mph - N/A   Mostly Cloudy
11:15 PM 37.6 °F 33.1 °F 29.3 °F 72% 30.03 in 10.0 mi NW 5.8 mph - N/A   Overcast
11:35 PM 38.3 °F 33.9 °F 29.3 °F 70% 30.04 in 10.0 mi NW 5.8 mph - N/A   Overcast
11:55 PM 37.0 °F 33.3 °F 29.3 °F 74% 30.05 in 10.0 mi NW 4.6 mph - N/A   Mostly Cloudy